User: anonymous   Login
Location: The Top Of The Sky Mini Observatory
(41.4300°N, 81.2300°W)
Time: 00:33:00
(UTC-04:00)
Language:

Iridium 86 - Orbit

View from above orbital plane
View from above orbital plane
View from above satellite
View from above satellite

Ground track
Ground track

The orbit data is extracted from the following two-line orbital elements,

1 25528U 98066B   16147.45603264 -.00000008  00000-0 -98513-5 0  9991
2 25528  86.3951 151.5047 0002235  91.1913 268.9539 14.34217522923934
Epoch (UTC): 26 May 2016 10:56:41
Eccentricity: 0.0002235
inclination: 86.3951°
perigee height: 776 km
apogee height: 779 km
right ascension of ascending node: 151.5047°
argument of perigee: 91.1913°
revolutions per day: 14.34217522
mean anomaly at epoch: 268.9539°
orbit number at epoch: 92393

The dashed part of the orbit path shows where the satellite is in the earth's shadow,  

DLR